Change the Weather History Date:

Friday, May 16, 2014

  Actual Average (KMTO) Record (KMTO)
Temperature  
Mean Temperature 46 °F 63 °F  
Max Temperature 52 °F 73 °F 91 °F (2001)
Min Temperature 41 °F 53 °F 36 °F (1959)
Degree Days  
Heating Degree Days 19 4  
Month to date heating degree days 86  
Since 1 July heating degree days 5348  
Cooling Degree Days 0 3  
Month to date cooling degree days 24  
Year to date cooling degree days 38  
Moisture  
Dew Point 40 °F    
Average Humidity 78    
Maximum Humidity 91    
Minimum Humidity 62    
Precipitation  
Precipitation 0.04 in 0.14 in 1.55 in (1990)
Month to date precipitation 2.42  
Year to date precipitation 12.40  
Sea Level Pressure  
Sea Level Pressure 30.04 in    
Wind  
Wind Speed 7 mph (West)    
Max Wind Speed 21 mph    
Max Gust Speed 28 mph    
Visibility 9 miles    
Events Rain , Thunderstorm    
T = Trace of Precipitation, MM = Missing Value Source: NWS Daily Summary

Daily Weather History Graph

Daily Weather History Graph

Search for Another Location

Airport or City:

Trip Planner

Search our weather history database for the weather conditions in past years. The results will help you decide how hot, cold, wet, or windy it might be!

Date:

Astronomy

May. 16, 2014 Rise Set
Actual Time 5:40 AM CDT 8:01 PM CDT
Civil Twilight 5:10 AM CDT 8:31 PM CDT
Nautical Twilight 4:32 AM CDT 9:08 PM CDT
Astronomical Twilight 3:51 AM CDT 9:50 PM CDT
Moon 10:07 PM CDT (5/16) 7:21 AM CDT (5/16)
Length of Visible Light 15h 21m
Length of Day
14h 20m
Waning Gibbous, 95% of the Moon is Illuminated
May 16
Waning Gibbous
May 21
Last Quarter
May 28
New
Jun 5
First Quarter
Jun 12
Full

Hourly Weather History & Observations

Time (CDT) Temp. Windchill Dew Point Humidity Pressure Visibility Wind Dir Wind Speed Gust Speed Precip Events Conditions
12:15 AM 46.4 °F - 43.7 °F 90% 30.04 in 5.0 mi Calm Calm - N/A   Unknown
12:35 AM 46.4 °F 44.3 °F 43.9 °F 91% 30.03 in 7.0 mi West 4.6 mph - N/A   Unknown
12:55 AM 45.9 °F 42.9 °F 42.8 °F 89% 30.02 in 10.0 mi West 5.8 mph - N/A   Unknown
1:15 AM 45.7 °F 43.4 °F 41.9 °F 87% 30.02 in 10.0 mi SW 4.6 mph - N/A   Unknown
1:35 AM 45.9 °F 44.6 °F 42.4 °F 88% 30.02 in 10.0 mi SSW 3.5 mph - N/A   Unknown
1:55 AM 45.7 °F - 42.1 °F 87% 30.01 in 10.0 mi Calm Calm - N/A   Unknown
2:15 AM 45.0 °F - 41.5 °F 88% 30.00 in 10.0 mi Calm Calm - N/A   Unknown
2:35 AM 44.6 °F 43.1 °F 41.2 °F 88% 30.00 in 10.0 mi WSW 3.5 mph - N/A   Unknown
2:55 AM 44.2 °F 41.0 °F 39.7 °F 84% 29.99 in 7.0 mi West 5.8 mph - N/A   Unknown
3:15 AM 43.7 °F 40.3 °F 39.4 °F 85% 29.99 in 10.0 mi WSW 5.8 mph - N/A   Unknown
3:35 AM 43.2 °F 40.5 °F 39.2 °F 86% 29.99 in 10.0 mi WSW 4.6 mph - N/A   Unknown
3:55 AM 42.8 °F 39.3 °F 38.7 °F 85% 29.99 in 10.0 mi WSW 5.8 mph - N/A   Unknown
4:15 AM 42.4 °F 39.6 °F 38.8 °F 87% 29.99 in 7.0 mi WSW 4.6 mph - N/A   Unknown
4:35 AM 42.1 °F 40.2 °F 38.7 °F 88% 29.99 in 10.0 mi WSW 3.5 mph - N/A   Unknown
4:55 AM 41.9 °F 39.0 °F 38.5 °F 88% 29.99 in 10.0 mi WSW 4.6 mph - N/A   Unknown
5:15 AM 41.5 °F 37.8 °F 38.3 °F 88% 30.00 in 10.0 mi WSW 5.8 mph - N/A   Unknown
5:35 AM 41.5 °F 37.8 °F 37.9 °F 87% 30.00 in 10.0 mi WSW 5.8 mph - N/A   Unknown
5:55 AM 41.4 °F 35.7 °F 37.8 °F 87% 30.00 in 7.0 mi West 9.2 mph - N/A   Unknown
6:15 AM 41.9 °F 38.2 °F 38.1 °F 86% 30.01 in 10.0 mi WSW 5.8 mph - N/A   Unknown
6:35 AM 42.4 °F 38.1 °F 38.7 °F 86% 30.01 in 10.0 mi West 6.9 mph - N/A   Unknown
6:55 AM 43.3 °F 38.6 °F 39.2 °F 85% 30.01 in 10.0 mi West 8.1 mph - N/A   Unknown
7:15 AM 43.7 °F 39.1 °F 39.4 °F 85% 30.01 in 10.0 mi West 8.1 mph - N/A   Unknown
7:35 AM 43.7 °F 38.1 °F 39.0 °F 84% 30.02 in 7.0 mi West 10.4 mph 18.4 mph N/A   Unknown
7:55 AM 43.9 °F 37.9 °F 39.2 °F 84% 30.02 in 7.0 mi West 11.5 mph - N/A   Unknown
8:15 AM 44.2 °F 38.4 °F 39.4 °F 83% 30.02 in 7.0 mi West 11.5 mph - N/A   Unknown
8:35 AM 44.8 °F 39.0 °F 39.6 °F 82% 30.02 in 7.0 mi West 11.5 mph - N/A   Unknown
8:55 AM 44.6 °F 39.2 °F 38.8 °F 80% 30.03 in 10.0 mi West 10.4 mph - N/A   Unknown
9:15 AM 45.5 °F 41.3 °F 38.8 °F 78% 30.03 in 10.0 mi West 8.1 mph - N/A   Unknown
9:35 AM 46.6 °F - 38.8 °F 74% 30.03 in 7.0 mi West 11.5 mph - N/A   Unknown
9:55 AM 46.9 °F - 38.1 °F 71% 30.03 in 10.0 mi West 9.2 mph - N/A Rain Heavy Rain
10:15 AM 46.0 °F 41.4 °F 38.1 °F 74% 30.03 in 10.0 mi West 9.2 mph - N/A Rain Rain
10:35 AM 46.0 °F 41.9 °F 39.4 °F 78% 30.03 in 10.0 mi WSW 8.1 mph - N/A   Unknown
10:55 AM 49.1 °F - 39.9 °F 71% 30.02 in 10.0 mi West 10.4 mph - N/A Rain Rain
11:15 AM 46.6 °F - 38.8 °F 74% 30.03 in 5.0 mi West 6.9 mph 12.7 mph N/A Rain Light Rain
11:35 AM 50.0 °F - 39.0 °F 66% 30.02 in 10.0 mi WSW 10.4 mph - N/A Rain Rain
11:55 AM 48.6 °F - 39.7 °F 72% 30.03 in 10.0 mi WSW 5.8 mph - N/A Rain Rain
12:15 PM 48.9 °F - 39.0 °F 69% 30.03 in 10.0 mi WSW 9.2 mph 16.1 mph N/A   Overcast
12:35 PM 49.1 °F - 38.8 °F 68% 30.03 in 10.0 mi West 13.8 mph 19.6 mph N/A Rain Rain
12:55 PM 49.6 °F - 38.3 °F 65% 30.03 in 10.0 mi West 17.3 mph 24.2 mph N/A Rain Rain
1:15 PM 47.7 °F - 39.4 °F 73% 30.03 in 10.0 mi West 13.8 mph 18.4 mph N/A Rain Rain
1:35 PM 48.7 °F - 40.8 °F 74% 30.03 in 10.0 mi West 9.2 mph - N/A Rain Rain
1:55 PM 50.4 °F - 39.4 °F 66% 30.03 in 10.0 mi West 16.1 mph 20.7 mph N/A Rain Rain
2:15 PM 51.6 °F - 40.3 °F 65% 30.03 in 10.0 mi West 16.1 mph 19.6 mph N/A Rain Rain
2:35 PM 51.3 °F - 38.7 °F 62% 30.02 in 10.0 mi WNW 16.1 mph 24.2 mph N/A Rain Rain
2:55 PM 47.8 °F - 40.1 °F 75% 30.04 in 5.0 mi WNW 12.7 mph 25.3 mph 0.03 in Rain Rain
3:15 PM 48.4 °F - 42.4 °F 80% 30.04 in 5.0 mi West 12.7 mph - N/A Rain Light Rain
3:35 PM 49.6 °F - 41.7 °F 74% 30.04 in 10.0 mi West 11.5 mph - N/A Rain Rain
3:55 PM 50.7 °F - 41.5 °F 71% 30.04 in 10.0 mi West 10.4 mph 18.4 mph N/A Rain Rain
4:15 PM 51.3 °F - 43.5 °F 75% 30.04 in 7.0 mi WNW 6.9 mph - N/A Rain , Thunderstorm Rain
4:35 PM 51.3 °F - 41.0 °F 68% 30.04 in 10.0 mi WNW 12.7 mph 16.1 mph N/A Rain Heavy Rain
4:55 PM 50.7 °F - 40.6 °F 68% 30.05 in 10.0 mi NW 20.7 mph 27.6 mph N/A Rain Light Rain
5:15 PM 48.9 °F - 41.2 °F 75% 30.05 in 7.0 mi NW 12.7 mph 16.1 mph N/A Rain Rain
5:35 PM 50.2 °F - 41.0 °F 71% 30.06 in 10.0 mi NW 15.0 mph 19.6 mph N/A Rain Rain
5:55 PM 46.9 °F - 40.1 °F 77% 30.06 in 7.0 mi NW 9.2 mph 12.7 mph 0.01 in Rain Rain
6:15 PM 49.5 °F - 41.2 °F 73% 30.06 in 10.0 mi WNW 8.1 mph - N/A Rain Rain
6:35 PM 50.0 °F - 41.7 °F 73% 30.07 in 10.0 mi WNW 9.2 mph - N/A Rain Rain
6:55 PM 48.9 °F - 39.2 °F 69% 30.08 in 10.0 mi WNW 15.0 mph 21.9 mph N/A Rain Rain
7:15 PM 47.8 °F - 38.3 °F 70% 30.10 in 10.0 mi WNW 16.1 mph - N/A Rain Rain
7:35 PM 47.3 °F - 37.0 °F 68% 30.10 in 10.0 mi NW 10.4 mph - N/A   Unknown
7:55 PM 46.6 °F - 37.6 °F 71% 30.11 in 7.0 mi WNW 6.9 mph - N/A   Unknown
8:15 PM 45.9 °F 42.9 °F 38.3 °F 75% 30.11 in 7.0 mi WNW 5.8 mph - N/A   Unknown
8:35 PM 46.0 °F 42.5 °F 37.6 °F 72% 30.11 in 10.0 mi NW 6.9 mph - N/A   Unknown
8:55 PM 45.3 °F 42.3 °F 38.7 °F 78% 30.12 in 10.0 mi WNW 5.8 mph - N/A   Unknown
9:15 PM 46.4 °F 43.5 °F 37.2 °F 70% 30.13 in 10.0 mi NW 5.8 mph - N/A   Unknown
9:35 PM 46.0 °F 43.1 °F 37.0 °F 71% 30.13 in 10.0 mi NW 5.8 mph - N/A   Unknown
9:55 PM 45.9 °F 43.6 °F 37.6 °F 73% 30.13 in 7.0 mi NW 4.6 mph - N/A   Unknown
10:15 PM 45.9 °F 44.6 °F 37.4 °F 72% 30.13 in 10.0 mi NW 3.5 mph - N/A   Unknown
10:35 PM 45.7 °F - 37.6 °F 73% 30.13 in 10.0 mi Calm Calm - N/A   Unknown
10:55 PM 44.6 °F 43.1 °F 39.2 °F 81% 30.13 in 10.0 mi West 3.5 mph - N/A   Unknown
11:15 PM 43.7 °F 41.1 °F 37.8 °F 80% 30.13 in 10.0 mi West 4.6 mph - N/A   Unknown
11:35 PM 42.6 °F 40.9 °F 38.3 °F 85% 30.13 in 10.0 mi West 3.5 mph - N/A   Unknown
11:55 PM 41.9 °F 40.0 °F 38.5 °F 88% 30.13 in 10.0 mi West 3.5 mph - N/A   Unknown